Location: Unspecified
(0.0000°N, 0.0000°E)
Time: 05:44:59
(UTC+00:00)

TIROS 6 DEB - Pass Details

Date: 18 August 2024
Orbit: 609 x 625 km, 58.3° (Epoch: 04 September)

Event Time Altitude Azimuth Distance (km) Brightness Sun altitude
Exits shadow 04:52:08 34° 247° (WSW) 1,027 ? -17.5°
Maximum altitude 04:53:39 48° 298° (WNW) 807 ? -17.1°
Drops below altitude 10° 04:57:59 10° 13° (NNE) 1,970 ? -16.0°
Sets 05:00:19 0° 19° (NNE) 2,869 ? -15.5°
